Tracking 27380 objects as of 5-Jun-2023
HD Live streaming from Space Station
objects crossing your sky now

COSMOS 1510

Track COSMOS 1510 now!
10-day predictions
COSMOS 1510 is classified as:


NORAD ID: 14521
Int'l Code: 1983-115A
Perigee: 1,487.1 km
Apogee: 1,530.4 km
Inclination: 73.6 °
Period: 116.0 minutes
Semi major axis: 7879 km
RCS: 10.4266 m2 (large)
Launch date: November 24, 1983
Source: Commonwealth of Independent States (former USSR) (CIS)
Launch site: PLESETSK MISSILE AND SPACE COMPLEX (PKMTR)
Your satellite tracking list
Your tracking list is empty




NASA's NSSDC Master Catalog

Two Line Element Set (TLE):
1 14521U 83115A   23155.88991740 -.00000006  00000-0  82812-4 0  9995
2 14521  73.6187 355.9563 0027432 119.4695 344.3449 12.41177163791524
Source of the keplerian elements: AFSPC